Location: Arlington
(40.6323°N, 74.1651°W)
Time: 09:45:59
(UTC+00:00)

NOSS 3-1 (A) - Pass Details

Date: 22 November 2019
Orbit: 769 x 1443 km, 63.4° (Epoch: 09 December)

Event Time Altitude Azimuth Distance (km) Brightness Sun altitude
Rises 21:57:45 0° 232° (SW) 3,286 8.2 -4.9°
Reaches altitude 10° 22:00:09 10° 239° (WSW) 2,405 7.4 -5.3°
Maximum altitude 22:05:26 47° 313° (NW) 1,170 4.2 -6.3°
Drops below altitude 10° 22:11:32 10° 26° (NNE) 2,763 5.5 -7.4°
Enters shadow 22:14:15 - 32° (NNE) 3,746 6.1 -7.8°
